When you browse on this site, cookies collect data to enhance your experience and personalize the content and advertising you see.
Visit our Privacy Policy to learn more. By continuing to use the site, you agree to this use of cookies and data.
  • In Portugal
  • List of Countries
  • For 7 days
  • Water Temperature
  • Weather Map
  • Weather Widgets
  • user-avatar
    Login

    Hourly Weather Yeghegnadzor

    Today, 2 June, Tuesday

    Time Temperature Precipitation Wind Pressure Humidity
    00:00 +17°C° 0 mm 2 mps 651 mmHg 39%
    01:00 +17°C° 0 mm 2 mps 650 mmHg 40%
    02:00 +17°C° 0 mm 2 mps 650 mmHg 41%
    03:00 +16°C° 0 mm 2 mps 650 mmHg 43%
    04:00 +17°C° 0 mm 2 mps 650 mmHg 44%
    05:00 +18°C° 0 mm 2 mps 651 mmHg 46%
    06:00 +19°C° 0 mm 2 mps 651 mmHg 47%
    07:00 +23°C° 0 mm 2 mps 651 mmHg 42%
    08:00 +25°C° 0 mm 3 mps 652 mmHg 36%
    09:00 +27°C° 0 mm 3 mps 652 mmHg 31%
    10:00 +28°C° 0 mm 4 mps 652 mmHg 29%
    11:00 +29°C° 0 mm 6 mps 652 mmHg 28%
    12:00 +30°C° 0 mm 7 mps 652 mmHg 26%
    13:00 +28°C° 0.1 mm 6 mps 651 mmHg 32%
    14:00 +27°C° 0.1 mm 6 mps 650 mmHg 37%
    15:00 +26°C° 0.1 mm 5 mps 650 mmHg 43%
    16:00 +26°C° 0.1 mm 4 mps 650 mmHg 44%
    17:00 +26°C° 0.1 mm 3 mps 650 mmHg 45%
    18:00 +26°C° 0.1 mm 2 mps 650 mmHg 46%
    19:00 +24°C° 0 mm 2 mps 649 mmHg 49%
    20:00 +21°C° 0 mm 2 mps 649 mmHg 51%
    21:00 +19°C° 0 mm 2 mps 648 mmHg 54%
    22:00 +18°C° 0 mm 2 mps 648 mmHg 56%
    23:00 +19°C° 0 mm 1 mps 648 mmHg 58%

    Tomorrow, 3 June, Wednesday

    Time Temperature Precipitation Wind Pressure Humidity
    00:00 +19°C° 0 mm 1 mps 648 mmHg 59%
    01:00 +18°C° 0 mm 1 mps 648 mmHg 62%
    02:00 +18°C° 0 mm 1 mps 648 mmHg 64%
    03:00 +16°C° 0 mm 1 mps 648 mmHg 66%
    04:00 +18°C° 0 mm 1 mps 649 mmHg 64%
    05:00 +19°C° 0 mm 1 mps 649 mmHg 63%
    06:00 +20°C° 0 mm 1 mps 650 mmHg 61%
    07:00 +21°C° 0 mm 2 mps 650 mmHg 53%
    08:00 +24°C° 0 mm 2 mps 650 mmHg 45%
    09:00 +25°C° 0 mm 3 mps 651 mmHg 38%
    10:00 +26°C° 0 mm 4 mps 651 mmHg 35%
    11:00 +27°C° 0 mm 4 mps 651 mmHg 32%
    12:00 +28°C° 0 mm 4 mps 650 mmHg 30%
    13:00 +27°C° 0.7 mm 4 mps 650 mmHg 37%
    14:00 +25°C° 0.7 mm 4 mps 649 mmHg 43%
    15:00 +23°C° 0.7 mm 4 mps 649 mmHg 50%
    16:00 +22°C° 0.3 mm 3 mps 649 mmHg 52%
    17:00 +22°C° 0.3 mm 3 mps 649 mmHg 55%
    18:00 +21°C° 0.3 mm 3 mps 649 mmHg 57%
    19:00 +20°C° 0.1 mm 3 mps 649 mmHg 57%
    20:00 +19°C° 0.1 mm 3 mps 649 mmHg 56%
    21:00 +18°C° 0.1 mm 3 mps 649 mmHg 55%
    22:00 +18°C° 0 mm 2 mps 650 mmHg 55%
    23:00 +17°C° 0 mm 2 mps 650 mmHg 56%

    Day after tomorrow, 4 June, Thursday

    Time Temperature Precipitation Wind Pressure Humidity
    00:00 +16°C° 0 mm 2 mps 650 mmHg 56%
    01:00 +16°C° 0 mm 2 mps 650 mmHg 59%
    02:00 +15°C° 0 mm 2 mps 650 mmHg 61%
    03:00 +15°C° 0 mm 2 mps 650 mmHg 64%
    04:00 +16°C° 0 mm 1 mps 650 mmHg 61%
    05:00 +18°C° 0 mm 1 mps 651 mmHg 58%
    06:00 +19°C° 0 mm 1 mps 652 mmHg 55%
    07:00 +20°C° 0 mm 1 mps 652 mmHg 48%
    08:00 +22°C° 0 mm 1 mps 652 mmHg 42%
    09:00 +24°C° 0 mm 2 mps 653 mmHg 35%
    10:00 +25°C° 0 mm 2 mps 653 mmHg 32%
    11:00 +26°C° 0 mm 3 mps 653 mmHg 29%
    12:00 +27°C° 0 mm 4 mps 653 mmHg 26%
    13:00 +27°C° 0 mm 4 mps 653 mmHg 26%
    14:00 +28°C° 0 mm 3 mps 653 mmHg 25%
    15:00 +28°C° 0 mm 3 mps 653 mmHg 25%
    16:00 +28°C° 0 mm 2 mps 653 mmHg 28%
    17:00 +27°C° 0 mm 1 mps 653 mmHg 32%
    18:00 +27°C° 0 mm 1 mps 653 mmHg 36%
    19:00 +25°C° 0 mm 1 mps 653 mmHg 37%
    20:00 +22°C° 0 mm 1 mps 652 mmHg 39%
    21:00 +20°C° 0 mm 1 mps 652 mmHg 40%
    22:00 +19°C° 0 mm 1 mps 652 mmHg 43%
    23:00 +18°C° 0 mm 1 mps 652 mmHg 45%

    5 June, Friday

    Time Temperature Precipitation Wind Pressure Humidity
    00:00 +18°C° 0 mm 1 mps 652 mmHg 48%
    01:00 +16°C° 0 mm 1 mps 652 mmHg 49%
    02:00 +16°C° 0 mm 1 mps 652 mmHg 51%
    03:00 +15°C° 0 mm 1 mps 652 mmHg 52%
    04:00 +16°C° 0 mm 1 mps 653 mmHg 52%
    05:00 +18°C° 0 mm 1 mps 654 mmHg 52%
    06:00 +20°C° 0 mm 1 mps 654 mmHg 52%
    07:00 +21°C° 0 mm 1 mps 655 mmHg 45%
    08:00 +23°C° 0 mm 1 mps 655 mmHg 39%
    09:00 +24°C° 0 mm 1 mps 655 mmHg 33%
    10:00 +25°C° 0 mm 2 mps 655 mmHg 31%
    11:00 +26°C° 0 mm 3 mps 655 mmHg 29%
    12:00 +27°C° 0 mm 4 mps 655 mmHg 27%
    13:00 +27°C° 0 mm 4 mps 655 mmHg 27%
    14:00 +27°C° 0 mm 3 mps 655 mmHg 26%
    15:00 +27°C° 0 mm 3 mps 655 mmHg 26%
    16:00 +27°C° 0 mm 2 mps 655 mmHg 29%
    17:00 +26°C° 0 mm 2 mps 655 mmHg 33%
    18:00 +26°C° 0 mm 1 mps 655 mmHg 36%
    19:00 +23°C° 0 mm 2 mps 655 mmHg 41%
    20:00 +20°C° 0 mm 2 mps 654 mmHg 46%
    21:00 +17°C° 0 mm 3 mps 654 mmHg 52%
    22:00 +17°C° 0 mm 3 mps 654 mmHg 54%
    23:00 +16°C° 0 mm 2 mps 655 mmHg 56%

    6 June, Saturday

    Time Temperature Precipitation Wind Pressure Humidity
    00:00 +16°C° 0 mm 2 mps 655 mmHg 59%
    01:00 +16°C° 0 mm 2 mps 654 mmHg 59%
    02:00 +15°C° 0 mm 2 mps 654 mmHg 59%
    03:00 +15°C° 0 mm 2 mps 654 mmHg 59%
    04:00 +16°C° 0 mm 1 mps 655 mmHg 59%
    05:00 +18°C° 0 mm 1 mps 655 mmHg 60%
    06:00 +19°C° 0 mm 1 mps 656 mmHg 60%
    07:00 +21°C° 0.1 mm 1 mps 656 mmHg 54%
    08:00 +22°C° 0.1 mm 1 mps 656 mmHg 48%
    09:00 +24°C° 0.1 mm 1 mps 657 mmHg 43%
    10:00 +25°C° 0.1 mm 1 mps 657 mmHg 40%
    11:00 +25°C° 0.1 mm 2 mps 657 mmHg 38%
    12:00 +26°C° 0.1 mm 2 mps 657 mmHg 36%
    13:00 +25°C° 0.7 mm 2 mps 656 mmHg 41%
    14:00 +24°C° 0.7 mm 3 mps 655 mmHg 46%
    15:00 +22°C° 0.7 mm 3 mps 655 mmHg 51%
    16:00 +22°C° 0.3 mm 3 mps 655 mmHg 52%
    17:00 +22°C° 0.3 mm 3 mps 655 mmHg 53%
    18:00 +21°C° 0.3 mm 3 mps 655 mmHg 53%
    19:00 +20°C° 0 mm 3 mps 655 mmHg 58%
    20:00 +18°C° 0 mm 2 mps 655 mmHg 62%
    21:00 +16°C° 0 mm 2 mps 655 mmHg 66%
    22:00 +16°C° 0 mm 2 mps 655 mmHg 66%
    23:00 +15°C° 0 mm 2 mps 655 mmHg 67%

    7 June, Sunday

    Time Temperature Precipitation Wind Pressure Humidity
    00:00 +15°C° 0 mm 2 mps 655 mmHg 67%
    01:00 +15°C° 0 mm 2 mps 655 mmHg 69%
    02:00 +14°C° 0 mm 2 mps 654 mmHg 71%
    03:00 +14°C° 0 mm 2 mps 654 mmHg 73%
    04:00 +15°C° 0 mm 1 mps 655 mmHg 70%
    05:00 +16°C° 0 mm 1 mps 655 mmHg 66%
    06:00 +18°C° 0 mm 1 mps 656 mmHg 63%
    07:00 +20°C° 0 mm 1 mps 656 mmHg 57%
    08:00 +22°C° 0 mm 1 mps 656 mmHg 51%
    09:00 +23°C° 0 mm 1 mps 657 mmHg 46%
    10:00 +24°C° 0 mm 1 mps 657 mmHg 43%
    11:00 +25°C° 0 mm 2 mps 657 mmHg 41%
    12:00 +26°C° 0 mm 2 mps 657 mmHg 38%
    13:00 +27°C° 0 mm 2 mps 657 mmHg 38%
    14:00 +27°C° 0 mm 2 mps 656 mmHg 38%
    15:00 +27°C° 0 mm 2 mps 656 mmHg 38%
    16:00 +27°C° 0 mm 2 mps 656 mmHg 39%
    17:00 +27°C° 0 mm 1 mps 656 mmHg 41%
    18:00 +26°C° 0 mm 1 mps 655 mmHg 43%
    19:00 +24°C° 0 mm 1 mps 655 mmHg 48%
    20:00 +20°C° 0 mm 2 mps 655 mmHg 54%
    21:00 +18°C° 0 mm 2 mps 654 mmHg 59%
    22:00 +18°C° 0 mm 2 mps 654 mmHg 59%
    23:00 +17°C° 0 mm 2 mps 654 mmHg 60%
    Show more